| time (UTC) | temp C | wind direction | speed KPH | gust KPH | rain 1hr cm | rain 24hr cm | rain mn cm | humidity % | barometer mb |
| 20260904095016 | 23 | 0.0 | 0.0 | 0.00 | 0.00 | 0.00 | 90 | 1015.5 | |
| 20260904094016 | 23 | 0.0 | 0.0 | 0.00 | 0.00 | 0.00 | 90 | 1015.5 | |
| 20260904093036 | 23 | 0.0 | 0.0 | 0.00 | 0.00 | 0.00 | 90 | 1015.4 | |
| 20260904092016 | 23 | 0.0 | 0.0 | 0.00 | 0.00 | 0.00 | 90 | 1015.5 | |
| 20260904091016 | 23 | 0.0 | 0.0 | 0.00 | 0.00 | 0.00 | 90 | 1015.5 | |
| 20260904090016 | 23 | 0.0 | 0.0 | 0.00 | 0.00 | 0.00 | 90 | 1015.5 | |
| 20260904085016 | 23 | 0.0 | 0.0 | 0.00 | 0.00 | 0.00 | 90 | 1015.5 | |
| 20260904084016 | 23 | 0.0 | 0.0 | 0.00 | 0.00 | 0.00 | 90 | 1015.4 | |
| 20260904083016 | 23 | 0.0 | 0.0 | 0.00 | 0.00 | 0.00 | 89 | 1015.4 | |
| 20260904082016 | 23 | 0.0 | 0.0 | 0.00 | 0.00 | 0.00 | 89 | 1015.3 | |
| 20260904081016 | 23 | 0.0 | 0.0 | 0.00 | 0.00 | 0.00 | 89 | 1015.3 | |
| 20260904080036 | 24 | 0.0 | 0.0 | 0.00 | 0.00 | 0.00 | 89 | 1015.3 | |
| 20260904075016 | 24 | 0.0 | 0.0 | 0.00 | 0.00 | 0.00 | 89 | 1015.3 | |
| 20260904074036 | 24 | 0.0 | 0.0 | 0.00 | 0.00 | 0.00 | 89 | 1015.1 | |
| 20260904073036 | 24 | 0.0 | 0.0 | 0.00 | 0.00 | 0.00 | 88 | 1015.1 | |
| 20260904072016 | 24 | 0.0 | 0.0 | 0.00 | 0.00 | 0.00 | 88 | 1015.0 | |
| 20260904071016 | 25 | 0.0 | 0.0 | 0.00 | 0.00 | 0.00 | 88 | 1015.2 | |
| 20260904070016 | 25 | 0.0 | 0.0 | 0.00 | 0.00 | 0.00 | 87 | 1015.2 | |
| 20260904065016 | 25 | 0.0 | 0.0 | 0.00 | 0.00 | 0.00 | 87 | 1015.3 | |
| 20260904064016 | 25 | 0.0 | 0.0 | 0.00 | 0.00 | 0.00 | 87 | 1015.5 | |
| 20260904063016 | 25 | 0.0 | 0.0 | 0.00 | 0.00 | 0.00 | 87 | 1015.2 | |
| 20260904062016 | 25 | 0.0 | 0.0 | 0.00 | 0.00 | 0.00 | 87 | 1015.4 | |
| 20260904061016 | 25 | 0.0 | 0.0 | 0.00 | 0.00 | 0.00 | 86 | 1015.3 | |
| 20260904060016 | 25 | 0.0 | 0.0 | 0.00 | 0.00 | 0.00 | 86 | 1015.4 | |
| 20260904055016 | 25 | 0.0 | 0.0 | 0.00 | 0.00 | 0.00 | 85 | 1015.5 | |
| 20260904054016 | 25 | 0.0 | 0.0 | 0.00 | 0.00 | 0.00 | 85 | 1015.5 | |
| 20260904053036 | 26 | 0.0 | 0.0 | 0.00 | 0.00 | 0.00 | 85 | 1015.5 | |
| 20260904052016 | 26 | 0.0 | 0.0 | 0.00 | 0.00 | 0.00 | 84 | 1015.7 | |
| 20260904051016 | 26 | 0.0 | 0.0 | 0.00 | 0.00 | 0.00 | 83 | 1015.6 | |
| 20260904050016 | 26 | 0.0 | 0.0 | 0.00 | 0.00 | 0.00 | 84 | 1015.7 | |
| 20260904045016 | 26 | 0.0 | 0.0 | 0.00 | 0.00 | 0.00 | 84 | 1015.7 | |
| 20260904044036 | 26 | 0.0 | 0.0 | 0.00 | 0.00 | 0.00 | 83 | 1015.7 | |
| 20260904043016 | 26 | 0.0 | 0.0 | 0.00 | 0.00 | 0.00 | 83 | 1015.7 | |
| 20260904042016 | 26 | 0.0 | 0.0 | 0.00 | 0.00 | 0.00 | 83 | 1015.6 | |
| 20260904041016 | 26 | 0.0 | 0.0 | 0.00 | 0.00 | 0.00 | 82 | 1015.7 | |
| 20260904040036 | 26 | 0.0 | 0.0 | 0.00 | 0.00 | 0.00 | 81 | 1015.5 | |
| 20260904035036 | 27 | 0.0 | 0.0 | 0.00 | 0.00 | 0.00 | 81 | 1015.6 | |
| 20260904034017 | 27 | 0.0 | 0.0 | 0.00 | 0.00 | 0.00 | 81 | 1015.7 | |
| 20260904033016 | 27 | 0.0 | 0.0 | 0.00 | 0.00 | 0.00 | 80 | 1015.7 | |
| 20260904032016 | 27 | 0.0 | 1.6 | 0.00 | 0.00 | 0.00 | 80 | 1015.8 | |
| 20260904031016 | 27 | 0.0 | 0.0 | 0.00 | 0.00 | 0.00 | 80 | 1015.7 | |
| 20260904030016 | 27 | 0.0 | 0.0 | 0.00 | 0.00 | 0.00 | 79 | 1015.6 | |
| 20260904025016 | 27 | 0.0 | 0.0 | 0.00 | 0.00 | 0.00 | 78 | 1015.7 | |
| 20260904024016 | 28 | 0.0 | 0.0 | 0.00 | 0.00 | 0.00 | 77 | 1015.7 | |
| 20260904023016 | 28 | 0.0 | 0.0 | 0.00 | 0.00 | 0.00 | 76 | 1015.7 | |
| 20260904022016 | 28 | 0.0 | 0.0 | 0.00 | 0.00 | 0.00 | 75 | 1015.6 | |
| 20260904021036 | 28 | 0.0 | 0.0 | 0.00 | 0.00 | 0.00 | 75 | 1015.7 | |
| 20260904020016 | 28 | 0.0 | 0.0 | 0.00 | 0.00 | 0.00 | 74 | 1015.6 | |
| 20260904015036 | 29 | 0.0 | 0.0 | 0.00 | 0.00 | 0.00 | 74 | 1015.5 | |
| 20260904014036 | 29 | 0.0 | 0.0 | 0.00 | 0.00 | 0.00 | 73 | 1015.5 | |
| 20260904013016 | 30 | 0.0 | 0.0 | 0.00 | 0.00 | 0.00 | 72 | 1015.4 | |
| 20260904012016 | 30 | 0.0 | 0.0 | 0.00 | 0.00 | 0.00 | 70 | 1015.2 | |
| 20260904011016 | 30 | 0.0 | 0.0 | 0.00 | 0.00 | 0.00 | 69 | 1015.0 | |
| 20260904010016 | 30 | 0.0 | 0.0 | 0.00 | 0.00 | 0.00 | 69 | 1015.0 | |
| 20260904005016 | 30 | 0.0 | 0.0 | 0.00 | 0.00 | 0.00 | 69 | 1014.9 | |
| 20260904004016 | 30 | 0.0 | 0.0 | 0.00 | 0.00 | 0.00 | 70 | 1014.7 | |
| 20260904003016 | 31 | 0.0 | 1.6 | 0.00 | 0.00 | 0.00 | 70 | 1014.6 | |
| 20260904002016 | 31 | 0.0 | 0.0 | 0.00 | 0.00 | 0.00 | 68 | 1014.4 | |
| 20260904001016 | 31 | 0.0 | 0.0 | 0.00 | 0.00 | 0.00 | 63 | 1014.3 | |
| 20260904000016 | 32 | 0.0 | 0.0 | 0.00 | 0.00 | 0.00 | 62 | 1014.3 | |
| 20260903235036 | 32 | 0.0 | 1.6 | 0.00 | 0.00 | 0.00 | 60 | 1014.3 | |
| 20260903234016 | 33 | 0.0 | 3.2 | 0.00 | 0.00 | 0.00 | 56 | 1014.2 | |
| 20260903233036 | 34 | 248 | 1.6 | 6.4 | 0.00 | 0.00 | 0.00 | 53 | 1014.3 |
| 20260903232016 | 34 | 248 | 1.6 | 4.8 | 0.00 | 0.00 | 0.00 | 51 | 1014.2 |
| 20260903231016 | 35 | 248 | 3.2 | 4.8 | 0.00 | 0.00 | 0.00 | 50 | 1014.3 |
| 20260903230016 | 35 | 248 | 3.2 | 6.4 | 0.00 | 0.00 | 0.00 | 50 | 1014.2 |
| 20260903225016 | 35 | 248 | 3.2 | 6.4 | 0.00 | 0.00 | 0.00 | 48 | 1014.2 |
| 20260903224016 | 35 | 248 | 3.2 | 6.4 | 0.00 | 0.00 | 0.00 | 47 | 1014.2 |
| 20260903223016 | 35 | 248 | 3.2 | 11.3 | 0.00 | 0.00 | 0.00 | 48 | 1014.2 |
| 20260903222036 | 35 | 248 | 1.6 | 6.4 | 0.00 | 0.00 | 0.00 | 48 | 1014.2 |
| 20260903221016 | 36 | 248 | 3.2 | 8.0 | 0.00 | 0.00 | 0.00 | 47 | 1014.1 |
| 20260903220016 | 36 | 248 | 4.8 | 12.9 | 0.00 | 0.00 | 0.00 | 47 | 1014.1 |
| 20260903215016 | 36 | 248 | 4.8 | 11.3 | 0.00 | 0.00 | 0.00 | 46 | 1014.1 |
| 20260903214016 | 36 | 248 | 4.8 | 11.3 | 0.00 | 0.00 | 0.00 | 46 | 1014.3 |
| 20260903213016 | 36 | 248 | 4.8 | 11.3 | 0.00 | 0.00 | 0.00 | 46 | 1014.5 |
| 20260903212016 | 36 | 248 | 4.8 | 11.3 | 0.00 | 0.00 | 0.00 | 47 | 1014.6 |
| 20260903211036 | 36 | 248 | 4.8 | 11.3 | 0.00 | 0.00 | 0.00 | 46 | 1014.8 |
| 20260903210016 | 36 | 248 | 4.8 | 11.3 | 0.00 | 0.00 | 0.00 | 46 | 1014.9 |
| 20260903205016 | 36 | 248 | 3.2 | 9.7 | 0.00 | 0.00 | 0.00 | 46 | 1014.9 |
| 20260903204016 | 36 | 248 | 3.2 | 8.0 | 0.00 | 0.00 | 0.00 | 48 | 1015.0 |
| 20260903203016 | 36 | 248 | 6.4 | 14.5 | 0.00 | 0.00 | 0.00 | 46 | 1015.2 |
| 20260903202016 | 36 | 248 | 4.8 | 8.0 | 0.00 | 0.00 | 0.00 | 48 | 1015.1 |
| 20260903201016 | 36 | 158 | 3.2 | 8.0 | 0.00 | 0.00 | 0.00 | 47 | 1015.4 |
| 20260903200016 | 36 | 248 | 4.8 | 11.3 | 0.00 | 0.00 | 0.00 | 45 | 1015.5 |
| 20260903195016 | 36 | 248 | 3.2 | 12.9 | 0.00 | 0.00 | 0.00 | 50 | 1015.6 |
| 20260903194016 | 36 | 248 | 3.2 | 11.3 | 0.00 | 0.00 | 0.00 | 52 | 1015.6 |
| 20260903193056 | 36 | 225 | 4.8 | 12.9 | 0.00 | 0.00 | 0.00 | 48 | 1015.6 |
| 20260903192016 | 36 | 248 | 4.8 | 9.7 | 0.00 | 0.00 | 0.00 | 46 | 1015.8 |
| 20260903191016 | 37 | 248 | 4.8 | 12.9 | 0.00 | 0.00 | 0.00 | 50 | 1015.8 |
| 20260903190016 | 36 | 225 | 3.2 | 8.0 | 0.00 | 0.00 | 0.00 | 48 | 1015.9 |
| 20260903185016 | 36 | 248 | 4.8 | 12.9 | 0.00 | 0.00 | 0.00 | 48 | 1016.0 |
| 20260903184036 | 36 | 248 | 4.8 | 16.1 | 0.00 | 0.00 | 0.00 | 48 | 1016.0 |
| 20260903183016 | 36 | 270 | 3.2 | 11.3 | 0.00 | 0.00 | 0.00 | 51 | 1016.1 |
| 20260903182016 | 36 | 248 | 6.4 | 14.5 | 0.00 | 0.00 | 0.00 | 48 | 1016.3 |
| 20260903181016 | 36 | 248 | 4.8 | 12.9 | 0.00 | 0.00 | 0.00 | 51 | 1016.4 |
| 20260903180016 | 36 | 248 | 4.8 | 16.1 | 0.00 | 0.00 | 0.00 | 49 | 1016.5 |
| 20260903175016 | 36 | 248 | 3.2 | 8.0 | 0.00 | 0.00 | 0.00 | 53 | 1016.6 |
| 20260903174016 | 35 | 248 | 4.8 | 12.9 | 0.00 | 0.00 | 0.00 | 51 | 1016.7 |
| 20260903173016 | 37 | 248 | 6.4 | 17.7 | 0.00 | 0.00 | 0.00 | 48 | 1016.9 |
| 20260903172016 | 37 | 248 | 4.8 | 14.5 | 0.00 | 0.00 | 0.00 | 47 | 1016.8 |
| 20260903171036 | 37 | 248 | 4.8 | 12.9 | 0.00 | 0.00 | 0.00 | 48 | 1016.9 |
| 20260903170016 | 37 | 248 | 4.8 | 12.9 | 0.00 | 0.00 | 0.00 | 48 | 1016.9 |
| 20260903165016 | 37 | 248 | 3.2 | 11.3 | 0.00 | 0.00 | 0.00 | 50 | 1017.2 |
| 20260903164036 | 37 | 248 | 3.2 | 8.0 | 0.00 | 0.00 | 0.00 | 50 | 1017.3 |
| 20260903163016 | 36 | 248 | 1.6 | 9.7 | 0.00 | 0.00 | 0.00 | 52 | 1017.4 |
| 20260903162016 | 36 | 248 | 3.2 | 9.7 | 0.00 | 0.00 | 0.00 | 52 | 1017.5 |
| 20260903161016 | 36 | 248 | 3.2 | 11.3 | 0.00 | 0.00 | 0.00 | 51 | 1017.4 |
| 20260903160016 | 35 | 248 | 3.2 | 9.7 | 0.00 | 0.00 | 0.00 | 53 | 1017.5 |
| 20260903155056 | 35 | 248 | 3.2 | 11.3 | 0.00 | 0.00 | 0.00 | 55 | 1017.4 |
| 20260903154016 | 35 | 158 | 3.2 | 9.7 | 0.00 | 0.00 | 0.00 | 57 | 1017.4 |
| 20260903153016 | 34 | 248 | 3.2 | 8.0 | 0.00 | 0.00 | 0.00 | 61 | 1017.4 |
| 20260903152016 | 33 | 248 | 3.2 | 9.7 | 0.00 | 0.00 | 0.00 | 60 | 1017.4 |
| 20260903151016 | 33 | 248 | 3.2 | 9.7 | 0.00 | 0.00 | 0.00 | 62 | 1017.5 |
| 20260903150016 | 32 | 248 | 3.2 | 8.0 | 0.00 | 0.00 | 0.00 | 64 | 1017.5 |
| 20260903145036 | 32 | 248 | 1.6 | 6.4 | 0.00 | 0.00 | 0.00 | 66 | 1017.5 |
| 20260903144016 | 31 | 203 | 1.6 | 3.2 | 0.00 | 0.00 | 0.00 | 67 | 1017.5 |
| 20260903143016 | 30 | 0.0 | 4.8 | 0.00 | 0.00 | 0.00 | 71 | 1017.5 | |
| 20260903142036 | 30 | 0.0 | 3.2 | 0.00 | 0.00 | 0.00 | 71 | 1017.6 | |
| 20260903141016 | 29 | 248 | 1.6 | 4.8 | 0.00 | 0.00 | 0.00 | 73 | 1017.6 |
| 20260903140016 | 28 | 225 | 3.2 | 8.0 | 0.00 | 0.00 | 0.00 | 77 | 1017.7 |
| 20260903135016 | 27 | 248 | 1.6 | 8.0 | 0.00 | 0.00 | 0.00 | 79 | 1017.6 |
| 20260903134016 | 26 | 0.0 | 0.0 | 0.00 | 0.00 | 0.00 | 83 | 1017.8 | |
| 20260903133016 | 26 | 0.0 | 0.0 | 0.00 | 0.00 | 0.00 | 87 | 1017.7 | |
| 20260903132016 | 25 | 0.0 | 0.0 | 0.00 | 0.00 | 0.00 | 90 | 1017.7 | |
| 20260903131016 | 24 | 0.0 | 0.0 | 0.00 | 0.00 | 0.00 | 92 | 1017.9 | |
| 20260903130017 | 23 | 0.0 | 0.0 | 0.00 | 0.00 | 0.00 | 93 | 1018.0 | |
| 20260903125016 | 23 | 0.0 | 0.0 | 0.00 | 0.00 | 0.00 | 93 | 1018.0 | |
| 20260903124016 | 23 | 0.0 | 0.0 | 0.00 | 0.00 | 0.00 | 94 | 1018.0 | |
| 20260903123016 | 23 | 0.0 | 0.0 | 0.00 | 0.00 | 0.00 | 94 | 1018.0 | |
| 20260903122016 | 23 | 0.0 | 0.0 | 0.00 | 0.00 | 0.00 | 94 | 1017.8 | |
| 20260903121036 | 23 | 0.0 | 0.0 | 0.00 | 0.00 | 0.00 | 94 | 1017.9 | |
| 20260903120036 | 23 | 0.0 | 0.0 | 0.00 | 0.00 | 0.00 | 93 | 1018.0 | |
| 20260903115056 | 22 | 0.0 | 0.0 | 0.00 | 0.00 | 0.00 | 93 | 1018.0 | |
| 20260903114016 | 22 | 0.0 | 0.0 | 0.00 | 0.00 | 0.00 | 93 | 1017.9 | |
| 20260903113016 | 22 | 0.0 | 0.0 | 0.00 | 0.00 | 0.00 | 93 | 1017.9 | |
| 20260903112016 | 22 | 0.0 | 0.0 | 0.00 | 0.00 | 0.00 | 93 | 1017.7 | |
| 20260903111016 | 23 | 0.0 | 0.0 | 0.00 | 0.00 | 0.00 | 93 | 1017.6 | |
| 20260903110016 | 23 | 0.0 | 0.0 | 0.00 | 0.00 | 0.00 | 93 | 1017.6 | |
| 20260903105016 | 23 | 0.0 | 0.0 | 0.00 | 0.00 | 0.00 | 93 | 1017.3 | |
| 20260903104016 | 23 | 0.0 | 0.0 | 0.00 | 0.00 | 0.00 | 93 | 1017.2 | |
| 20260903103016 | 23 | 0.0 | 0.0 | 0.00 | 0.00 | 0.00 | 92 | 1017.3 | |
| 20260903102036 | 23 | 0.0 | 0.0 | 0.00 | 0.00 | 0.00 | 92 | 1017.4 | |
| 20260903101016 | 23 | 0.0 | 0.0 | 0.00 | 0.00 | 0.00 | 92 | 1017.3 | |
| 20260903100016 | 23 | 0.0 | 0.0 | 0.00 | 0.00 | 0.00 | 92 | 1017.3 |